Showing default

ORBCOMM FM 112, 41184

Orbit data source: Space-Track

ORBCOMM FM 112, 41184 is a payload satellite owned by Orbcomm (US) in LEO that was launched on Tue, 22 Dec 2015 UTC via an FALCON 9 launch vehicle from the Air Force Eastern Test Range (AFETR). Payload-class satellites include a variety of spacecraft equipped with specific instruments for various scientific and technological missions. These include communications satellites like Starlink; space stations such as the ISS; scientific satellites like the Hubble; Earth observation satellites from companies like Planet Labs, Umbra, and HawkEye 360; GPS; miniature CubeSats for education and research; and military/defense satellites.

Loading next visibility...
Identifier
41184, 2015-081F
Orbit
LEO
Country
Flag of USUS / ORB
Related business
Manufacturer
SNC Louisville
Mission
Operational Commercial Communications
Bus & Motor
SN-100A, Unknown motor
Mass
172 kg wet, 158 kg dry
Launch date (UTC)
2015-12-22 (10 years ago)
Launch vehicle
FALCON 9
Launch site
Air Force Eastern Test Range (AFETR)
Object type
Payload
Rocket body
Debris
Shape & HBR
Box + 1 Pan + 1 Ant, 6.5 m
Radar Cross Section
2.222 m², Medium (>0.1 m² and < 1m²)

Expand to show TLE details & history
Last TLE update: 23 hours ago

TLE from 23 hours ago
0 ORBCOMM FM 112
1 41184U 15081F   25257.37628063  .00000586  00000-0  16176-3 0  9992
2 41184  46.9985 133.9701 0001375  18.8560 341.2376 14.58384114518682
Epoch: 2025-09-14T09:01Z
TLE epoch observation values (Epoch: 2025-09-14T09:01:50.646Z)
Latitude
-0.00004°
Longitude
4.91287°
Altitude
697.69 km
Speed
7.509 km/s
True Right ascension
08h 55m 52s
True Declination
0° 00' 00"
Sunlit
Object was in daylight at epoch
Visualization orbit readout
Latitude
Unknown
Longitude
Unknown
Altitude
Unknown
Speed
Unknown
Apparent Right ascension
Unknown
Apparent Declination
Unknown
Sunlit
N/A
Visualization observer readout
Local Sidereal Time
00:42:23
Azimuth
Unknown
Elevation
Unknown
Doppler factor
Unknown
Orbital elements
Apogee altitude
700.605 km
Perigee altitude
698.658 km
Semi-major axis
7,077.768 km
Eccentricity
0.00014
Inclination
46.9985°
RAAN
133.9701°
Arg. of periapsis
18.856°
True anomaly
341.23253°
Mean anomaly
341.2376°
Eccentric anomaly
341.23507°
Mean motion
3.64501 °/min
Orbital period
98.77 mins
BSTAR
0.00016176
Loading maneuver chart data...
Computing Atmospheric mass density...
Loading historical data...
Loading historical data...
Loading historical data...
Loading historical data...
Loading historical data...
Loading historical data...
Loading historical data...

Documentation

Showing up to 5 results
|